Regional Weather Roundup
Issued by NWS Albany, NY

Home | Current Version | Previous Version | Text Only | Print | Product List | Glossary On
Versions: 1 2 3 4 5 6 7 8 9 10 11 12 13 14 15 16 17 18 19 20 21 22 23 24 25 26 27 28 29 30 31 32 33 34 35 36 37 38 39 40 41 42 43 44 45 46 47 48 49 50
338
ASUS41 KALY 251210
RWRALY

NEW YORK STATE HOURLY WEATHER ROUNDUP
NATIONAL WEATHER SERVICE ALBANY NY
700 AM EST SAT FEB 25 2017

NOTE: "FAIR" INDICATES FEW OR NO CLOUDS BELOW 12,000 FEET WITH NO
SIGNIFICANT WEATHER AND/OR NO OBSTRUCTIONS TO VISIBILITY.

NYZ032-033-038>043-046>054-057>066-NYZ062>081-082-084-251300-
EAST


CITY           SKY/WX    TMP DP  RH WIND       PRES   REMARKS
ALBANY         MOCLDY    60  53  77 S15G23    29.68F
GLENS FALLS    CLOUDY    41  37  86 CALM      29.68S
POUGHKEEPSIE   CLOUDY    59  54  83 VRB5      29.73F
NEWBURGH       MOCLDY    61  57  88 SW12      29.75S
MONTGOMERY     CLOUDY    60  55  83 S12       29.71F
WHITE PLAINS   FOG       53  52  96 SE7       29.77F VSB<1/4
ISLIP          FOG       51  51 100 SE8       29.80F VSB 1/16
NEW YORK CITY  FOG       51  50  96 S6        29.78F VSB 1/4
CENTRAL PARK   CLOUDY    50  50 100 CALM      29.80S FOG
$$

NYZ005>009-017-018-044>046-055-056-251300-
CENTRAL


CITY           SKY/WX    TMP DP  RH WIND       PRES   REMARKS
FULTON         CLOUDY    61  53  75 S6        29.54S
SYRACUSE       CLOUDY    62  53  72 SW8       29.54R
ROME           CLOUDY    60  53  77 SE9       29.59S
ELMIRA         CLOUDY    63  52  67 W12G17    29.55F
BINGHAMTON     CLOUDY    58  53  84 VRB6G16   29.60F
MONTICELLO     PTCLDY   N/A N/A N/A S8        29.72F
$$

NYZ026>034-041>043-087-251300-
NORTH


CITY           SKY/WX    TMP DP  RH WIND       PRES   REMARKS
WATERTOWN      CLOUDY    52  49  89 W13       29.53R
FORT DRUM      NOT AVBL
OGDENSBURG     CLOUDY    35  34  99 E5        29.54F FOG     WCI  31
MASSENA        FOG       33  33 100 E8        29.58F VSB 3/4 WCI  26
SARANAC LAKE   CLOUDY    53  49  86 S12       29.58F
PLATTSBURGH    FOG       33  32  96 S7        29.61F VSB 3/4 WCI  27
$$

NYZ001>004-010>016-019>021-085-251300-
WEST


CITY           SKY/WX    TMP DP  RH WIND       PRES   REMARKS
NIAGARA FALLS  LGT RAIN  55  51  86 SW16G23   29.44F
BUFFALO        RAIN      51  47  86 SW22G39   29.47F
DUNKIRK        LGT RAIN  45  43  93 SW22G35   29.51S FOG
JAMESTOWN      CLOUDY    52  48  87 S10       29.48F
WELLSVILLE     LGT RAIN  56  50  80 S9        29.55F
ROCHESTER      CLOUDY    60  50  69 S8        29.49F
PENN YAN       CLOUDY    59  50  72 S5        29.54F
$$

             KEY
       WCI = WIND CHILL INDEX
       VSB = VISIBILITY
       HX  = HEAT INDEX
$$




USA.gov is the U.S. government's official web portal to all federal, state and local government web resources and services.